User: anonymous   Login
Location: Guayaquil
(2.1667°S, 79.9000°W)
Time: 16:43:59
(UTC-05:00)
Language:

NEE 01 PEGASUS - Orbit

View from above orbital plane
View from above orbital plane
View from above satellite
View from above satellite

Ground track
Ground track

The orbit data is extracted from the following two-line orbital elements,

1 39151U 13018B   17266.21960958  .00000219  00000-0  36129-4 0  9991
2 39151  97.9829 357.1196 0018541  93.1955 267.1378 14.79768553238033
Epoch (UTC): 23 September 2017 05:16:14
Eccentricity: 0.0018541
inclination: 97.9829°
perigee height: 617 km
apogee height: 643 km
right ascension of ascending node: 357.1196°
argument of perigee: 93.1955°
revolutions per day: 14.79768553
mean anomaly at epoch: 267.1378°
orbit number at epoch: 23803

The dashed part of the orbit path shows where the satellite is in the earth's shadow,  

DLR